Weather History for KTBR - February, 2013

Change the Weather History Date:

Thursday, February 28, 2013

  Actual Average (KSAV) Record (KSAV)
Temperature  
Mean Temperature 52 °F 56 °F  
Max Temperature 60 °F 67 °F 86 °F (1962)
Min Temperature 44 °F 44 °F 20 °F (2002)
Degree Days  
Heating Degree Days 13 10  
Month to date heating degree days 343  
Since 1 July heating degree days 1517  
Cooling Degree Days 0 0  
Month to date cooling degree days 7  
Year to date cooling degree days 10  
Growing Degree Days 2 (Base 50)    
Moisture  
Dew Point 34 °F    
Average Humidity 53    
Maximum Humidity 76    
Minimum Humidity 34    
Precipitation  
Precipitation 0.00 in 0.10 in 1.54 in (1966)
Month to date precipitation 2.79  
Year to date precipitation 6.48  
Sea Level Pressure  
Sea Level Pressure 29.89 in    
Wind  
Wind Speed 9 mph (WNW)    
Max Wind Speed 18 mph    
Max Gust Speed 28 mph    
Visibility 10 miles    
Events      
T = Trace of Precipitation, MM = Missing Value Source: NWS Daily Summary

Daily Weather History Graph

Daily Weather History Graph

Search for Another Location

Airport or City:

Trip Planner

Search our weather history database for the weather conditions in past years. The results will help you decide how hot, cold, wet, or windy it might be!

Date:

Astronomy

Feb. 28, 2013 Rise Set
Actual Time 6:55 AM EST 6:23 PM EST
Civil Twilight 6:30 AM EST 6:48 PM EST
Nautical Twilight 6:02 AM EST 7:17 PM EST
Astronomical Twilight 5:33 AM EST 7:45 PM EST
Moon 9:34 PM EST (2/28) 8:17 AM EST (2/28)
Length of Visible Light 12h 17m
Length of Day
11h 28m
Waning Gibbous, 91% of the Moon is Illuminated
Feb 28
Waning Gibbous
Mar 4
Last Quarter
Mar 11
New
Mar 19
First Quarter
Mar 27
Full

Hourly Weather History & Observations

Time (EST) Temp. Windchill Dew Point Humidity Pressure Visibility Wind Dir Wind Speed Gust Speed Precip Events Conditions
12:15 AM 50.0 °F - 41.0 °F 71% 29.88 in 10.0 mi West 8.1 mph - N/A   Clear
1:15 AM 50.0 °F - 39.2 °F 66% 29.88 in 10.0 mi West 5.8 mph - N/A   Clear
1:35 AM 50.0 °F - 39.2 °F 66% 29.88 in 10.0 mi West 5.8 mph - N/A   Clear
1:55 AM 50.0 °F - 39.2 °F 66% 29.87 in 10.0 mi West 5.8 mph - N/A   Clear
2:15 AM 48.2 °F - 39.2 °F 71% 29.86 in 10.0 mi WSW 4.6 mph - N/A   Clear
2:35 AM 46.4 °F - 39.2 °F 76% 29.86 in 10.0 mi Calm Calm - N/A   Clear
2:55 AM 46.4 °F - 39.2 °F 76% 29.86 in 10.0 mi Calm Calm - N/A   Clear
3:15 AM 46.4 °F 44.3 °F 39.2 °F 76% 29.86 in 10.0 mi WSW 4.6 mph - N/A   Clear
3:35 AM 46.4 °F 42.9 °F 39.2 °F 76% 29.86 in 10.0 mi West 6.9 mph - N/A   Clear
3:55 AM 46.4 °F 42.9 °F 39.2 °F 76% 29.87 in 10.0 mi West 6.9 mph - N/A   Clear
4:15 AM 46.4 °F 42.9 °F 39.2 °F 76% 29.87 in 10.0 mi West 6.9 mph - N/A   Clear
4:35 AM 46.4 °F 44.3 °F 39.2 °F 76% 29.87 in 10.0 mi West 4.6 mph - N/A   Clear
4:55 AM 46.4 °F 43.5 °F 39.2 °F 76% 29.87 in 10.0 mi West 5.8 mph - N/A   Clear
5:55 AM 44.6 °F 42.2 °F 37.4 °F 76% 29.88 in 10.0 mi West 4.6 mph - N/A   Clear
6:15 AM 44.6 °F 42.2 °F 37.4 °F 76% 29.89 in 10.0 mi West 4.6 mph - N/A   Clear
6:35 AM 44.6 °F 42.2 °F 37.4 °F 76% 29.90 in 10.0 mi West 4.6 mph - N/A   Clear
6:55 AM 44.6 °F 41.4 °F 37.4 °F 76% 29.90 in 10.0 mi West 5.8 mph - N/A   Clear
7:35 AM 44.6 °F 40.2 °F 37.4 °F 76% 29.91 in 10.0 mi West 8.1 mph - N/A   Clear
7:55 AM 46.4 °F 41.9 °F 37.4 °F 71% 29.91 in 10.0 mi WNW 9.2 mph - N/A   Clear
8:15 AM 48.2 °F - 37.4 °F 66% 29.92 in 10.0 mi WNW 11.5 mph - N/A   Clear
8:35 AM 50.0 °F - 35.6 °F 58% 29.92 in 10.0 mi WNW 12.7 mph 20.7 mph N/A   Clear
8:55 AM 50.0 °F - 33.8 °F 54% 29.93 in 10.0 mi WNW 16.1 mph - N/A   Clear
9:15 AM 51.8 °F - 33.8 °F 50% 29.93 in 10.0 mi WNW 16.1 mph 21.9 mph N/A   Clear
9:35 AM 51.8 °F - 33.8 °F 50% 29.93 in 10.0 mi NW 13.8 mph 20.7 mph N/A   Clear
9:55 AM 51.8 °F - 32.0 °F 47% 29.93 in 10.0 mi West 15.0 mph 19.6 mph N/A   Clear
10:15 AM 51.8 °F - 32.0 °F 47% 29.93 in 10.0 mi WNW 17.3 mph 24.2 mph N/A   Clear
10:35 AM 53.6 °F - 32.0 °F 44% 29.92 in 10.0 mi WNW 16.1 mph 24.2 mph N/A   Clear
10:55 AM 53.6 °F - 32.0 °F 44% 29.91 in 10.0 mi NW 15.0 mph 24.2 mph N/A   Clear
11:15 AM 55.4 °F - 32.0 °F 41% 29.91 in 10.0 mi WNW 12.7 mph 18.4 mph N/A   Clear
11:35 AM 55.4 °F - 32.0 °F 41% 29.91 in 10.0 mi West 12.7 mph 18.4 mph N/A   Clear
11:55 AM 55.4 °F - 30.2 °F 38% 29.90 in 10.0 mi WNW 12.7 mph - N/A   Clear
12:15 PM 57.2 °F - 32.0 °F 38% 29.89 in 10.0 mi WNW 9.2 mph 24.2 mph N/A   Scattered Clouds
12:35 PM 57.2 °F - 30.2 °F 36% 29.89 in 10.0 mi West 12.7 mph 19.6 mph N/A   Scattered Clouds
12:55 PM 59.0 °F - 30.2 °F 34% 29.87 in 10.0 mi NW 13.8 mph 21.9 mph N/A   Clear
1:35 PM 59.0 °F - 30.2 °F 34% 29.85 in 10.0 mi WNW 12.7 mph 24.2 mph N/A   Clear
1:55 PM 60.8 °F - 32.0 °F 34% 29.85 in 10.0 mi WNW 16.1 mph 24.2 mph N/A   Clear
2:15 PM 60.8 °F - 32.0 °F 34% 29.84 in 10.0 mi West 10.4 mph 18.4 mph N/A   Clear
2:35 PM 60.8 °F - 32.0 °F 34% 29.84 in 10.0 mi WSW 13.8 mph 26.5 mph N/A   Clear
2:55 PM 60.8 °F - 32.0 °F 34% 29.85 in 10.0 mi West 16.1 mph 25.3 mph N/A   Clear
3:15 PM 60.8 °F - 32.0 °F 34% 29.84 in 10.0 mi WNW 11.5 mph 27.6 mph N/A   Scattered Clouds
3:35 PM 60.8 °F - 32.0 °F 34% 29.84 in 10.0 mi West 18.4 mph 24.2 mph N/A   Scattered Clouds
3:55 PM 60.8 °F - 32.0 °F 34% 29.85 in 10.0 mi West 15.0 mph 24.2 mph N/A   Clear
4:15 PM 60.8 °F - 32.0 °F 34% 29.84 in 10.0 mi WNW 11.5 mph 23.0 mph N/A   Clear
4:35 PM 59.0 °F - 32.0 °F 36% 29.84 in 10.0 mi West 18.4 mph 24.2 mph N/A   Clear
4:55 PM 59.0 °F - 32.0 °F 36% 29.84 in 10.0 mi WNW 11.5 mph 16.1 mph N/A   Clear
5:15 PM 59.0 °F - 32.0 °F 36% 29.85 in 10.0 mi West 9.2 mph 17.3 mph N/A   Clear
5:35 PM 59.0 °F - 32.0 °F 36% 29.86 in 10.0 mi West 10.4 mph 19.6 mph N/A   Clear
5:55 PM 57.2 °F - 32.0 °F 38% 29.87 in 10.0 mi West 10.4 mph 17.3 mph N/A   Clear
6:15 PM 57.2 °F - 32.0 °F 38% 29.87 in 10.0 mi WNW 9.2 mph - N/A   Clear
6:35 PM 55.4 °F - 32.0 °F 41% 29.87 in 10.0 mi WNW 9.2 mph - N/A   Clear
6:55 PM 55.4 °F - 33.8 °F 44% 29.88 in 10.0 mi WNW 11.5 mph - N/A   Clear
7:15 PM 55.4 °F - 33.8 °F 44% 29.90 in 10.0 mi NW 11.5 mph 19.6 mph N/A   Clear
7:35 PM 53.6 °F - 33.8 °F 47% 29.90 in 10.0 mi NW 10.4 mph - N/A   Clear
7:55 PM 53.6 °F - 33.8 °F 47% 29.90 in 10.0 mi NW 8.1 mph - N/A   Clear
8:15 PM 51.8 °F - 33.8 °F 50% 29.90 in 10.0 mi NW 6.9 mph - N/A   Clear
8:35 PM 51.8 °F - 33.8 °F 50% 29.91 in 10.0 mi NNW 12.7 mph - N/A   Clear
8:55 PM 51.8 °F - 32.0 °F 47% 29.91 in 10.0 mi NW 10.4 mph - N/A   Clear
9:15 PM 50.0 °F - 32.0 °F 50% 29.92 in 10.0 mi NNW 9.2 mph - N/A   Clear
9:35 PM 50.0 °F - 32.0 °F 50% 29.92 in 10.0 mi NNW 6.9 mph - N/A   Clear
10:15 PM 50.0 °F - 32.0 °F 50% 29.93 in 10.0 mi NNW 11.5 mph 17.3 mph N/A   Clear
10:35 PM 46.4 °F 41.5 °F 32.0 °F 57% 29.94 in 10.0 mi NNW 10.4 mph 19.6 mph N/A   Clear
10:55 PM 46.4 °F 41.5 °F 32.0 °F 57% 29.94 in 10.0 mi NNW 10.4 mph 16.1 mph N/A   Clear
11:15 PM 46.4 °F 40.7 °F 32.0 °F 57% 29.95 in 10.0 mi NNW 12.7 mph 21.9 mph N/A   Clear
11:35 PM 44.6 °F 38.8 °F 32.0 °F 61% 29.95 in 10.0 mi NNW 11.5 mph 18.4 mph N/A   Clear
11:55 PM 44.6 °F 39.2 °F 32.0 °F 61% 29.95 in 10.0 mi NNW 10.4 mph - N/A   Clear